Change the Weather History Date:

Wednesday, June 5, 2013

  Actual Average Record
Temperature  
Mean Temperature 57 °F 61 °F  
Max Temperature 66 °F 73 °F 108 °F (1988)
Min Temperature 47 °F 49 °F 32 °F (1930)
Degree Days  
Heating Degree Days 8 5  
Month to date heating degree days 47 29  
Since 1 June heating degree days 47 29  
Since 1 July heating degree days 8541 8360  
Cooling Degree Days 0 2  
Month to date cooling degree days 0 6  
Year to date cooling degree days 9 23  
Since 1 June cooling degree days 0 6  
Growing Degree Days 7 (Base 50)    
Moisture  
Dew Point 45 °F    
Average Humidity 65    
Maximum Humidity 86    
Minimum Humidity 44    
Precipitation  
Precipitation 0.00 in 0.09 in 1.38 in (1963)
Month to date precipitation 1.33 0.44  
Year to date precipitation 8.60 4.26  
Snow  
Snow 0.00 in 0.00 in 0.00 in (2002)
Month to date snowfall 0.0 0.0  
Since 1 June snowfall 0.0 0.0  
Since 1 July snowfall 62.3 34.8  
Snow Depth 0.00 in    
Sea Level Pressure  
Sea Level Pressure 30.14 in    
Wind  
Wind Speed 7 mph (South)    
Max Wind Speed 14 mph    
Max Gust Speed 18 mph    
Visibility 10 miles    
Events      
T = Trace of Precipitation, MM = Missing Value Source: NWS Daily Summary

Daily Weather History Graph

Daily Weather History Graph

Search for Another Location

Airport or City:

Trip Planner

Search our weather history database for the weather conditions in past years. The results will help you decide how hot, cold, wet, or windy it might be!

Date:

Astronomy

Jun. 05, 2013 Rise Set
Actual Time 5:07 AM MDT 9:02 PM MDT
Civil Twilight 4:27 AM MDT 9:43 PM MDT
Nautical Twilight 3:31 AM MDT 10:39 PM MDT
Astronomical Twilight 2:03 AM MDT 12:08 AM MDT
Moon 3:25 AM MDT (6/5) 6:22 PM MDT (6/5)
Length of Visible Light 17h 16m
Length of Day
15h 54m
Waning Crescent, 8% of the Moon is Illuminated
Jun 5
Waning Crescent
Jun 8
New
Jun 16
First Quarter
Jun 23
Full
Jun 29
Last Quarter

Hourly Weather History & Observations

Time (MDT) Temp. Dew Point Humidity Pressure Visibility Wind Dir Wind Speed Gust Speed Precip Events Conditions
12:53 AM 51.1 °F 45.0 °F 80% 30.22 in 10.0 mi SSE 4.6 mph - N/A   Overcast
1:53 AM 51.1 °F 45.0 °F 80% 30.20 in 10.0 mi South 3.5 mph - N/A   Overcast
2:53 AM 50.0 °F 44.1 °F 80% 30.19 in 10.0 mi SW 3.5 mph - N/A   Overcast
3:53 AM 48.9 °F 44.1 °F 83% 30.19 in 10.0 mi SW 4.6 mph - N/A   Overcast
4:53 AM 48.0 °F 44.1 °F 86% 30.19 in 10.0 mi SW 4.6 mph - N/A   Overcast
5:53 AM 48.0 °F 44.1 °F 86% 30.19 in 10.0 mi WSW 4.6 mph - N/A   Overcast
6:53 AM 48.0 °F 45.0 °F 89% 30.20 in 10.0 mi West 4.6 mph - N/A   Overcast
7:53 AM 50.0 °F 45.0 °F 83% 30.20 in 10.0 mi West 4.6 mph - N/A   Overcast
8:53 AM 53.1 °F 44.1 °F 71% 30.21 in 10.0 mi Calm Calm - N/A   Overcast
9:53 AM 55.9 °F 45.0 °F 67% 30.20 in 10.0 mi Calm Calm - N/A   Overcast
10:53 AM 57.0 °F 45.0 °F 64% 30.20 in 10.0 mi Variable 3.5 mph - N/A   Overcast
11:53 AM 60.1 °F 45.0 °F 57% 30.19 in 10.0 mi South 6.9 mph - N/A   Overcast
12:53 PM 63.0 °F 46.0 °F 54% 30.16 in 10.0 mi South 8.1 mph - N/A   Scattered Clouds
1:53 PM 64.9 °F 45.0 °F 48% 30.14 in 10.0 mi SSE 8.1 mph - N/A   Clear
2:53 PM 64.9 °F 43.0 °F 45% 30.12 in 10.0 mi South 9.2 mph - N/A   Clear
3:53 PM 66.0 °F 44.1 °F 45% 30.11 in 10.0 mi South 10.4 mph - N/A   Partly Cloudy
4:53 PM 66.0 °F 44.1 °F 45% 30.09 in 10.0 mi South 6.9 mph - N/A   Clear
5:53 PM 66.0 °F 44.1 °F 45% 30.08 in 10.0 mi SSE 10.4 mph - N/A   Clear
6:53 PM 64.0 °F 45.0 °F 50% 30.06 in 10.0 mi SE 11.5 mph - N/A   Clear
7:53 PM 62.1 °F 46.9 °F 58% 30.06 in 10.0 mi SE 8.1 mph - N/A   Clear
8:53 PM 57.9 °F 48.0 °F 70% 30.06 in 10.0 mi SE 8.1 mph - N/A   Clear
9:53 PM 55.0 °F 46.9 °F 74% 30.06 in 10.0 mi ESE 9.2 mph - N/A   Clear
10:53 PM 53.1 °F 46.9 °F 80% 30.06 in 10.0 mi ESE 9.2 mph - N/A   Clear
11:53 PM 51.1 °F 46.0 °F 83% 30.05 in 10.0 mi ESE 8.1 mph - N/A   Clear